Hamilton, TX

2:31 AM CST on January 22, 2017 (GMT -0600)
Hamilton Municipal

Weather History for KMNZ - December, 2012

Change the Weather History Date:

Monday, December 3, 2012

  Actual Average (KACT) Record (KACT)
Temperature  
Mean Temperature 70 °F -  
Max Temperature 77 °F 61 °F 87 °F (2005)
Min Temperature 62 °F 41 °F 22 °F (1929)
Cooling Degree Days 4    
Growing Degree Days 20 (Base 50)    
Moisture  
Dew Point 59 °F    
Average Humidity 75    
Maximum Humidity 97    
Minimum Humidity 52    
Precipitation  
Precipitation 0.00 in - - ()
Sea Level Pressure  
Sea Level Pressure 30.01 in    
Wind  
Wind Speed 14 mph (South)    
Max Wind Speed 22 mph    
Max Gust Speed 28 mph    
Visibility 10 miles    
Events      
Averages and records for this station are not official NWS values.
T = Trace of Precipitation, MM = Missing Value Source: NWS Daily Summary

Daily Weather History Graph

Daily Weather History Graph

Search for Another Location

Airport or City:

Trip Planner

Search our weather history database for the weather conditions in past years. The results will help you decide how hot, cold, wet, or windy it might be!

Date:

Astronomy

Dec. 03, 2012 Rise Set
Actual Time 7:16 AM CST 5:28 PM CST
Civil Twilight 6:49 AM CST 5:55 PM CST
Nautical Twilight 6:19 AM CST 6:25 PM CST
Astronomical Twilight 5:50 AM CST 6:54 PM CST
Moon 10:06 PM CST (12/3) 10:49 AM CST (12/3)
Length of Visible Light 11h 05m
Length of Day
10h 12m
Waning Gibbous, 78% of the Moon is Illuminated
Dec 3
Waning Gibbous
Dec 6
Last Quarter
Dec 13
New
Dec 19
First Quarter
Dec 28
Full

Hourly Weather History & Observations

Time (CST) Temp. Dew Point Humidity Pressure Visibility Wind Dir Wind Speed Gust Speed Precip Events Conditions
12:15 AM 66.0 °F 59.2 °F 79% 30.04 in 10.0 mi South 13.8 mph 19.6 mph N/A   Clear
12:35 AM 65.7 °F 58.8 °F 79% 30.04 in 10.0 mi South 13.8 mph 23.0 mph N/A   Clear
12:55 AM 65.5 °F 58.5 °F 78% 30.04 in 10.0 mi South 15.0 mph 19.6 mph N/A   Clear
1:15 AM 65.1 °F 58.1 °F 78% 30.03 in 10.0 mi South 12.7 mph 20.7 mph N/A   Clear
1:35 AM 64.6 °F 58.1 °F 79% 30.03 in 10.0 mi South 12.7 mph 16.1 mph N/A   Clear
1:55 AM 64.2 °F 58.1 °F 80% 30.03 in 10.0 mi South 10.4 mph - N/A   Clear
2:15 AM 63.5 °F 58.1 °F 83% 30.03 in 10.0 mi South 11.5 mph - N/A   Clear
2:35 AM 63.1 °F 58.5 °F 85% 30.04 in 10.0 mi South 9.2 mph - N/A   Clear
2:55 AM 62.8 °F 59.9 °F 90% 30.03 in 10.0 mi South 12.7 mph 17.3 mph N/A   Scattered Clouds
3:15 AM 62.8 °F 61.7 °F 96% 30.03 in 10.0 mi South 16.1 mph - N/A   Overcast
3:35 AM 63.3 °F 62.4 °F 97% 30.03 in 10.0 mi South 13.8 mph - N/A   Overcast
3:55 AM 63.7 °F 62.2 °F 95% 30.02 in 10.0 mi South 16.1 mph 20.7 mph N/A   Overcast
4:15 AM 63.7 °F 61.7 °F 93% 30.02 in 10.0 mi South 15.0 mph - N/A   Overcast
4:55 AM 64.0 °F 61.0 °F 90% 30.02 in 10.0 mi South 16.1 mph 23.0 mph N/A   Overcast
5:15 AM 64.4 °F 60.8 °F 88% 30.02 in 10.0 mi South 11.5 mph - N/A   Overcast
5:35 AM 64.4 °F 60.8 °F 88% 30.02 in 10.0 mi South 9.2 mph - N/A   Overcast
5:55 AM 64.4 °F 60.8 °F 88% 30.02 in 10.0 mi South 11.5 mph - N/A   Overcast
6:15 AM 64.6 °F 60.4 °F 86% 30.02 in 10.0 mi South 12.7 mph - N/A   Overcast
6:35 AM 64.8 °F 60.4 °F 86% 30.03 in 10.0 mi South 10.4 mph - N/A   Overcast
6:55 AM 64.9 °F 60.3 °F 85% 30.03 in 10.0 mi South 11.5 mph - N/A   Overcast
7:15 AM 65.3 °F 60.1 °F 83% 30.03 in 10.0 mi South 12.7 mph 16.1 mph N/A   Overcast
7:55 AM 64.6 °F 59.9 °F 85% 30.02 in 10.0 mi South 11.5 mph - N/A   Scattered Clouds
8:15 AM 64.8 °F 59.9 °F 84% 30.03 in 10.0 mi South 11.5 mph - N/A   Clear
8:55 AM 65.3 °F 59.2 °F 81% 30.04 in 10.0 mi South 16.1 mph - N/A   Scattered Clouds
9:15 AM 67.1 °F 59.0 °F 75% 30.04 in 10.0 mi South 16.1 mph 21.9 mph N/A   Scattered Clouds
9:35 AM 67.6 °F 58.6 °F 73% 30.04 in 10.0 mi South 19.6 mph 26.5 mph N/A   Mostly Cloudy
9:55 AM 68.4 °F 58.3 °F 70% 30.06 in 10.0 mi SSW 18.4 mph 25.3 mph N/A   Mostly Cloudy
10:15 AM 69.4 °F 58.1 °F 67% 30.06 in 10.0 mi SW 21.9 mph 26.5 mph N/A   Overcast
10:35 AM 69.3 °F 57.9 °F 67% 30.06 in 10.0 mi SSW 17.3 mph 25.3 mph N/A   Overcast
10:55 AM 69.1 °F 57.9 °F 68% 30.06 in 10.0 mi SSW 20.7 mph 26.5 mph N/A   Overcast
11:15 AM 69.1 °F 57.9 °F 68% 30.06 in 10.0 mi SSW 17.3 mph - N/A   Overcast
11:35 AM 69.1 °F 58.1 °F 68% 30.06 in 10.0 mi SSW 15.0 mph 21.9 mph N/A   Overcast
11:55 AM 69.4 °F 58.3 °F 68% 30.05 in 10.0 mi SSW 16.1 mph 19.6 mph N/A   Overcast
12:15 PM 71.2 °F 58.6 °F 64% 30.03 in 10.0 mi SSW 18.4 mph 27.6 mph N/A   Overcast
12:35 PM 72.3 °F 58.3 °F 61% 30.02 in 10.0 mi SSW 19.6 mph 24.2 mph N/A   Overcast
12:55 PM 73.6 °F 58.1 °F 58% 30.00 in 10.0 mi SSW 18.4 mph 26.5 mph N/A   Mostly Cloudy
1:15 PM 75.0 °F 58.3 °F 56% 30.00 in 10.0 mi SSW 17.3 mph 23.0 mph N/A   Mostly Cloudy
1:35 PM 75.2 °F 58.3 °F 56% 29.99 in 10.0 mi SSW 19.6 mph 23.0 mph N/A   Mostly Cloudy
1:55 PM 75.7 °F 58.5 °F 55% 29.99 in 10.0 mi SSW 18.4 mph 24.2 mph N/A   Mostly Cloudy
2:15 PM 76.6 °F 58.3 °F 53% 29.98 in 10.0 mi SSW 16.1 mph 24.2 mph N/A   Scattered Clouds
2:35 PM 77.0 °F 58.3 °F 52% 29.97 in 10.0 mi SSW 15.0 mph 20.7 mph N/A   Scattered Clouds
2:55 PM 77.4 °F 58.5 °F 52% 29.97 in 10.0 mi South 13.8 mph 20.7 mph N/A   Scattered Clouds
3:15 PM 77.2 °F 58.8 °F 53% 29.96 in 10.0 mi South 17.3 mph 24.2 mph N/A   Scattered Clouds
3:35 PM 76.3 °F 59.0 °F 55% 29.97 in 10.0 mi South 21.9 mph 26.5 mph N/A   Scattered Clouds
3:55 PM 75.7 °F 59.4 °F 57% 29.96 in 10.0 mi South 19.6 mph 23.0 mph N/A   Clear
4:15 PM 75.2 °F 59.4 °F 58% 29.95 in 10.0 mi South 18.4 mph 25.3 mph N/A   Clear
4:35 PM 74.5 °F 59.2 °F 59% 29.95 in 10.0 mi SSW 17.3 mph 24.2 mph N/A   Clear
4:55 PM 73.8 °F 59.2 °F 60% 29.95 in 10.0 mi South 15.0 mph - N/A   Clear
5:15 PM 72.7 °F 59.2 °F 62% 29.95 in 10.0 mi South 15.0 mph 20.7 mph N/A   Clear
5:35 PM 71.8 °F 59.2 °F 64% 29.95 in 10.0 mi South 13.8 mph - N/A   Clear
5:55 PM 70.9 °F 59.2 °F 66% 29.95 in 10.0 mi South 16.1 mph 19.6 mph N/A   Clear
6:15 PM 70.5 °F 59.7 °F 69% 29.95 in 10.0 mi South 16.1 mph 20.7 mph N/A   Clear
6:35 PM 70.3 °F 59.9 °F 69% 29.94 in 10.0 mi South 17.3 mph 24.2 mph N/A   Clear
6:55 PM 69.4 °F 60.1 °F 72% 29.95 in 10.0 mi South 12.7 mph 19.6 mph N/A   Clear
7:15 PM 68.9 °F 60.1 °F 73% 29.97 in 10.0 mi South 10.4 mph - N/A   Clear
7:35 PM 68.5 °F 60.3 °F 75% 29.99 in 10.0 mi South 9.2 mph - N/A   Clear
8:15 PM 67.6 °F 59.9 °F 76% 30.00 in 10.0 mi SSW 9.2 mph - N/A   Clear
8:35 PM 67.5 °F 59.9 °F 77% 30.01 in 10.0 mi SSW 10.4 mph - N/A   Clear
8:55 PM 66.9 °F 59.9 °F 78% 30.00 in 10.0 mi South 11.5 mph - N/A   Clear
9:15 PM 66.6 °F 59.9 °F 79% 30.00 in 10.0 mi South 11.5 mph - N/A   Clear
9:35 PM 66.2 °F 59.7 °F 80% 30.00 in 10.0 mi South 10.4 mph - N/A   Clear
9:55 PM 65.3 °F 59.5 °F 82% 29.99 in 10.0 mi South 9.2 mph - N/A   Clear
10:15 PM 65.5 °F 59.7 °F 82% 30.00 in 10.0 mi South 8.1 mph - N/A   Clear
10:35 PM 66.0 °F 59.7 °F 80% 30.02 in 10.0 mi WSW 4.6 mph - N/A   Clear
10:55 PM 64.8 °F 59.0 °F 82% 30.03 in 10.0 mi Calm Calm - N/A   Clear
11:15 PM 63.0 °F 59.4 °F 88% 30.03 in 10.0 mi WSW 4.6 mph - N/A   Clear
11:35 PM 62.4 °F 59.7 °F 91% 30.03 in 10.0 mi SW 6.9 mph - N/A   Clear
11:55 PM 62.4 °F 61.0 °F 95% 30.03 in 10.0 mi South 8.1 mph - N/A   Clear